Presure
185 224 202 133 212 137 122 138 145 113 87 122 131 116 107 126 117 126 125 100 120 89 122 112 109 122 110 112 118 119 119 132 121 111 103 114 114 105 94 108 102 103 106 105
225 231 176 153 129 116 90 157 137 132 144 108 159 111 116 122 97 112 118 108 107 106 121 115 114 104 112 117 113 118 118 116 122 118 117 86 128 129 94 122 111 101 109 108
274 260 239 233 222 192 153 173 144 147 158 138 153 126 113 111 125 101 93 108 130 116 111 99 117 127 109 110 104 120 114 115 129 118 104 96 111 103 95 97 97 106 103 103
281 296 311 318 285 248 251 231 183 92 196 129 89 155 84 135 103 118 131 120 130 120 102 112 109 115 121 114 118 109 120 116 92 116 115 101 118 109 100 110 107 114 98 105
255 260 270 298 292 315 294 236 89 77 201 184 131 100 81 79 89 100 118 99 121 134 125 118 112 84 80 106 129 129 120 116 110 111 120 84 119 116 124 112 92 106 99 108
505 292 510 591 505 453 339 320 272 152 126 163 120 124 186 136 152 131 99 105 87 128 106 134 130 93 106 110 111 122 109 121 127 109 113 115 114 110 110 105 108 107 114 110
465 447 465 523 478 447 408 418 197 69 75 169 219 112 109 133 128 135 124 105 116 127 98 102 114 131 132 109 107 119 111 134 90 132 121 98 117 118 91 119 114 117 107 104
439 444 431 468 433 441 397 367 389 304 300 268 236 226 72 207 122 131 103 113 127 84 130 123 124 122 107 131 118 125 123 94 94 108 127 116 114 128 124 101 125 105 103 125
327 401 422 435 436 409 406 378 348 386 333 302 265 90 75 207 205 139 94 121 188 109 102 97 127 132 129 101 123 131 113 112 115 123 95 119 126 124 112 124 101 126 100 118
303 369 410 419 436 388 374 365 363 364 397 306 254 70 259 239 211 92 90 132 114 126 126 135 140 145 125 112 139 132 122 98 102 128 113 126 139 137 129 104 131 129 121 107
279 295 382 407 395 416 356 383 352 334 367 65 223 307 257 250 226 142 114 83 89 161 165 180 146 142 115 136 134 108 121 95 130 144 119 121 114 111 136 135 93 120 126 126
270 279 304 369 417 397 382 344 339 341 350 350 348 348 285 256 249 239 217 226 146 194 94 176 152 143 141 128 141 134 138 136 100 130 105 116 91 125 90 103 125 129 105 128
278 285 286 308 371 399 372 382 361 335 336 350 346 356 459 243 255 108 217 220 160 214 195 97 106 180 115 113 157 135 105 136 115 137 128 91 142 123 98 126 98 123 123 119
268 270 283 276 325 379 405 391 351 356 360 349 335 328 192 337 284 260 246 229 128 222 224 150 213 87 159 140 153 146 140 174 148 129 115 126 122 142 148 131 139 134 133 108
254 264 256 276 279 322 363 400 377 356 342 334 333 373 343 324 291 276 259 248 117 89 86 217 217 213 184 141 122 100 109 151 155 143 168 139 154 97 125 144 136 135 123 139
249 252 260 265 271 279 290 364 342 354 341 338 334 336 345 421 351 308 322 76 82 243 248 244 228 209 111 214 214 155 119 91 155 136 141 157 167 171 153 142 160 159 131 148
239 239 251 265 267 268 273 289 372 376 358 360 335 339 336 340 341 365 346 314 294 264 147 244 244 124 241 216 122 211 88 152 134 103 138 133 190 179 170 138 112 166 166 106
235 238 242 255 264 122 271 282 285 356 375 365 368 369 334 328 318 315 331 348 310 310 185 264 253 153 235 88 94 220 213 211 210 166 176 162 129 147 117 178 145 148 165 151
231 236 238 248 260 268 267 278 278 295 346 378 368 376 384 366 192 77 320 123 79 331 343 295 271 261 79 110 112 256 255 213 217 205 161 121 196 179 171 112 115 151 151 150
221 219 236 243 256 263 269 263 279 296 342 366 364 358 359 361 388 65 81 331 327 324 301 323 87 89 144 175 251 251 255 259 92 217 211 207 195 107 202 111 109 131 151 100
228 126 228 241 259 264 269 281 277 297 338 350 353 363 370 352 359 381 399 376 70 80 332 293 211 326 325 82 95 263 132 251 255 253 188 219 208 144 212 206 110 157 207 203
221 215 224 236 247 260 257 271 280 288 297 344 339 363 357 343 345 268 83 376 357 371 199 358 319 345 178 337 329 317 290 278 103 265 264 193 161 176 217 117 98 205 205 203
221 221 223 225 240 254 255 254 278 280 293 339 354 369 369 359 341 333 339 341 334 363 324 364 283 362 374 363 348 358 367 360 328 281 265 264 263 247 239 235 238 240 218 216
216 215 226 218 237 252 254 247 267 286 296 342 348 342 337 342 348 352 348 347 348 339 353 374 372 369 367 372 359 380 368 365 364 365 372 352 282 230 257 258 235 232 241 247
213 212 219 229 231 248 257 245 249 279 294 341 347 341 346 356 364 374 369 353 343 347 354 344 345 355 378 386 382 379 371 212 138 101 387 367 381 224 315 251 251 253 248 246
206 219 220 232 237 248 252 251 239 266 298 340 343 350 336 349 377 410 415 414 399 370 364 367 369 372 381 378 345 416 317 336 395 313 373 382 378 371 372 395 398 325 247 251
Wind_Speed
108 116 113 97 116 97 86 86 84 81 27 85 79 69 49 79 57 58 55 48 51 44 53 46 43 43 46 45 41 40 36 37 35 30 29 30 29 23 24 24 23 23 23 23
120 121 108 104 90 74 28 95 86 95 101 51 95 66 74 73 40 56 59 53 55 59 57 56 47 46 45 50 45 40 40 35 35 34 33 29 36 34 27 27 28 25 26 27
108 118 124 123 122 108 88 102 96 89 112 110 97 75 72 61 78 51 42 57 69 62 61 50 57 54 48 50 42 47 39 41 42 37 39 35 35 31 30 33 31 28 28 27
90 93 97 104 120 128 126 120 99 36 122 83 49 95 28 82 55 72 78 76 77 67 58 63 57 56 57 53 53 44 47 45 30 40 44 40 40 37 32 34 36 35 30 32
85 88 93 94 102 106 118 123 29 19 126 116 67 50 49 29 51 56 83 60 74 82 71 67 63 34 33 52 66 57 55 47 44 45 46 33 45 40 40 37 33 38 34 36
37 74 33 28 41 61 86 106 128 113 84 92 83 50 95 87 96 95 65 70 36 69 57 74 74 38 54 52 54 64 54 53 50 50 48 48 47 40 41 38 42 40 43 40
32 30 29 12 27 41 62 69 58 12 16 85 126 45 60 67 98 103 95 64 79 76 55 51 65 75 75 59 56 62 48 69 43 55 52 44 51 50 40 49 46 48 43 43
41 18 27 20 28 35 58 73 72 114 120 131 126 137 16 114 54 105 32 73 106 47 95 87 83 74 44 71 65 74 70 35 37 39 50 54 53 56 54 45 54 46 46 55
45 30 25 20 18 22 38 57 58 67 106 116 130 29 23 125 119 106 37 85 104 41 47 49 89 89 80 47 70 79 50 48 53 61 34 53 58 59 54 62 45 58 40 57
48 36 28 17 16 25 37 50 49 60 52 112 97 17 129 128 127 22 10 119 67 77 81 101 97 104 71 41 81 76 69 45 52 69 61 72 80 70 64 51 63 64 59 49
46 44 30 16 10 25 41 39 58 79 62 22 84 113 121 125 127 55 82 12 12 121 121 115 103 99 52 91 92 58 69 42 75 79 69 71 66 57 75 67 40 58 64 66
45 45 43 25 17 15 36 42 48 53 59 57 88 89 113 124 130 136 133 137 117 126 38 118 111 103 100 87 98 90 93 85 53 77 57 67 29 77 40 49 67 58 47 64
50 45 40 42 22 13 21 25 45 54 53 58 70 78 47 94 125 38 105 135 85 139 124 44 51 110 50 61 108 89 68 94 64 89 84 43 89 72 49 77 42 76 61 50
50 47 42 38 38 20 21 27 37 36 42 58 69 70 44 79 117 124 128 114 60 137 143 80 133 9 87 90 107 104 100 106 103 88 70 77 74 88 88 78 86 86 81 52
47 47 42 37 34 31 18 27 35 43 49 57 58 49 76 87 88 121 126 131 45 29 33 138 142 139 107 70 63 43 46 109 110 97 110 95 105 53 73 91 85 83 72 90
48 46 49 41 39 34 30 9 24 35 50 55 60 61 69 57 86 109 105 25 23 137 137 141 143 138 47 138 137 112 60 37 116 88 103 113 119 116 103 92 101 99 78 94
46 46 49 49 46 43 36 33 19 30 47 54 63 64 65 68 72 82 93 115 126 133 71 137 140 60 146 141 53 139 36 88 91 53 95 86 118 120 117 88 61 115 113 48
48 50 49 51 47 20 40 38 34 26 30 40 55 59 68 73 77 84 88 88 113 120 83 136 137 77 131 30 39 144 140 139 139 103 124 118 86 107 63 114 98 87 94 90
52 54 55 54 52 51 45 41 37 34 33 34 36 38 51 61 40 25 87 35 23 98 103 129 137 139 25 47 41 140 143 140 143 138 104 60 136 114 118 59 59 109 102 101
47 50 57 57 55 50 47 47 44 36 37 34 34 36 39 45 51 23 18 91 93 96 96 107 30 29 71 89 140 139 139 141 38 145 148 148 136 52 136 56 56 68 85 46
56 25 57 62 63 60 54 51 48 44 47 36 35 34 33 38 38 43 56 72 27 29 102 95 73 114 120 37 30 143 68 139 140 135 103 148 147 95 150 145 63 100 136 130
53 54 61 64 64 64 61 59 55 49 52 40 36 37 34 37 38 37 35 52 59 70 57 97 95 111 68 118 124 132 142 141 37 138 138 110 92 113 155 65 44 144 143 140
56 62 61 62 66 67 64 59 55 52 54 45 42 39 37 35 40 44 51 58 59 64 66 72 70 92 92 104 113 113 112 116 132 143 139 137 138 145 147 149 147 150 149 153
57 63 65 59 70 67 63 63 63 57 53 44 38 37 38 42 45 47 52 57 60 65 66 69 72 76 79 86 97 92 104 108 111 112 109 123 141 122 137 139 148 149 146 147
59 63 66 72 70 68 68 62 61 62 59 49 41 41 43 43 46 51 52 56 61 62 65 71 71 70 71 77 81 85 93 61 39 33 92 106 98 54 130 139 139 139 142 144
62 68 67 72 72 69 67 65 62 65 62 51 44 41 42 38 38 36 40 43 49 53 57 58 60 63 61 62 63 75 73 78 86 73 93 89 89 93 93 77 70 114 139 139
Wind_Direction
251 249 250 245 248 242 249 244 237 251 200 250 239 243 271 251 253 246 247 255 246 251 253 251 244 243 251 255 252 254 256 257 254 257 253 268 272 270 275 284 290 295 298 303
251 251 248 247 245 247 247 241 243 243 243 234 242 255 254 252 244 255 246 246 247 256 249 253 247 245 244 250 253 247 254 251 256 256 256 270 271 270 268 276 278 283 288 293
254 251 250 249 248 250 254 247 243 244 246 247 240 239 259 268 247 246 246 252 241 239 250 251 254 246 252 246 249 253 248 254 257 256 251 262 257 263 262 267 273 279 281 283
260 259 258 256 250 248 246 244 245 259 247 247 242 234 246 242 254 248 239 245 244 241 258 251 255 255 252 250 248 252 250 248 261 254 255 255 261 258 261 266 267 270 284 278
265 261 260 256 255 251 246 245 228 234 244 246 237 242 241 260 263 259 251 253 252 244 239 243 254 249 255 255 255 250 253 249 252 256 257 270 263 262 267 264 273 269 275 280
313 270 307 265 247 242 244 240 241 239 237 240 245 256 236 242 245 243 251 257 243 251 239 239 237 265 272 260 259 256 261 251 246 254 257 257 262 259 260 264 269 271 277 282
329 310 310 283 242 235 234 236 241 274 239 241 238 231 242 253 242 243 246 259 260 247 256 247 243 241 231 263 255 254 256 259 260 248 253 262 262 262 257 264 266 269 271 279
352 330 305 279 244 227 226 233 234 232 234 236 233 237 222 243 231 241 252 247 251 246 248 252 254 255 248 231 256 248 252 250 256 261 248 257 261 260 264 253 266 265 267 274
344 339 328 297 245 246 231 229 232 237 233 233 234 229 285 237 240 239 238 241 248 248 236 253 253 255 252 246 243 242 274 278 279 267 253 258 254 253 259 261 261 265 260 273
346 356 341 311 256 231 229 223 225 238 241 233 230 258 234 232 235 245 213 243 242 242 244 247 246 247 248 243 242 241 256 249 258 252 269 264 263 262 256 263 259 261 268 271
343 345 348 336 269 226 232 221 226 236 235 217 238 230 232 234 232 231 240 308 291 246 246 242 249 252 248 253 262 255 254 249 251 243 265 256 273 260 263 262 263 264 262 268
344 345 352 344 277 242 228 232 236 240 241 238 235 229 231 232 232 233 235 234 244 239 244 244 248 250 253 260 258 264 258 251 243 251 264 266 263 261 256 269 268 268 269 263
347 348 347 357 341 286 245 232 228 235 235 234 241 236 224 231 234 226 233 236 229 238 239 237 244 245 240 251 247 258 228 259 248 252 249 263 254 264 268 261 265 271 274 265
348 345 346 346 356 327 269 230 233 222 226 233 234 230 229 226 233 235 237 235 229 237 238 246 241 251 245 249 248 252 258 250 257 246 251 252 261 251 253 259 253 255 261 271
343 348 335 346 342 351 333 242 233 235 241 236 238 227 229 234 231 233 233 234 239 240 277 238 240 241 243 249 249 249 250 256 256 253 243 251 253 261 253 252 256 256 259 259
341 345 340 338 333 332 340 281 269 251 237 238 239 238 232 217 229 233 233 218 218 236 236 238 238 238 234 244 245 250 248 259 255 260 261 255 251 250 259 260 256 257 259 258
335 336 339 339 335 326 326 334 298 251 254 245 241 241 240 240 237 228 232 237 238 239 235 239 240 236 240 239 225 243 252 248 254 250 258 257 245 248 252 260 249 255 257 261
332 334 331 337 337 271 332 329 325 309 265 258 258 248 241 244 245 243 240 234 239 239 237 241 242 245 242 257 250 242 243 244 246 250 253 257 255 259 237 246 263 250 249 260
330 333 329 335 338 330 329 325 318 326 302 267 254 246 249 247 229 206 247 227 218 242 237 241 242 243 264 258 257 244 243 243 243 246 248 264 252 253 255 255 245 261 258 267
322 324 325 330 334 330 327 322 325 330 320 300 282 272 256 247 242 242 246 242 245 245 244 244 250 254 249 248 245 244 244 244 259 242 244 245 249 259 254 251 262 249 257 262
323 274 320 329 332 331 329 331 329 331 329 312 298 276 269 259 250 247 245 243 247 248 246 247 249 247 248 254 257 246 252 245 244 243 244 245 248 252 249 253 254 255 256 256
319 317 319 328 328 331 326 330 329 332 329 315 302 293 274 259 257 248 233 258 250 247 231 243 244 245 249 248 250 249 247 248 259 248 244 243 246 248 249 247 255 255 257 258
320 317 320 321 325 328 324 326 328 327 329 315 305 291 286 275 263 256 253 251 247 250 245 251 248 246 247 248 249 250 250 251 250 248 248 247 246 244 246 249 250 252 250 252
318 310 321 316 322 325 323 323 326 326 330 315 305 296 286 280 273 263 256 256 256 254 254 254 252 249 246 250 250 253 252 253 254 254 254 253 248 248 248 248 248 250 252 252
314 311 316 317 317 322 322 320 323 325 328 320 309 300 295 295 288 280 272 265 262 259 257 255 257 259 262 256 251 253 253 255 250 254 254 255 256 261 249 247 249 249 249 251
301 309 311 316 317 321 321 318 320 323 328 318 309 303 304 310 314 303 292 284 276 267 267 268 268 267 266 266 261 258 258 258 259 261 253 252 252 254 256 256 255 251 250 251